[[{"header":{"parameterUnit":"m.s-1","parameterCategory":1,"la1":30.2991,"la2":30.254,"lo1":-89.0895,"lo2":-89.0444,"dy":0.0017,"dx":0.0017,"nx":28,"ny":28,"refTime":"2023-11-03T03:00:00:Z","depth":0,"parameterNumber":2,"parameterNumberName":"U-component_of_WINDS"},"data":[0,0,0,0,0,0,0,0,0,0,0,0,0,0,0,0,0,0,0,0,0,0,0,0,0,0,0,0,0,0,0,0,0,0,0,0,0,0,0,0,0,0,0,0,0,0,0,0,0,0,0,0,0,0,0,0,0,0,-4.2897,-4.2898,0,-4.2985,-4.2986,-4.2987,-4.2887,-4.2883,-4.2879,-4.2876,-4.2965,-4.2971,-4.2977,0,0,0,0,0,0,0,0,0,0,0,0,0,-4.2642,-4.2647,-4.2897,-4.2898,-4.2899,-4.2985,-4.2986,-4.2987,-4.2887,-4.2883,-4.2878,-4.2874,-4.2963,-4.297,-4.2977,0,0,0,0,0,0,0,0,0,0,0,0,0,-4.2743,-4.2648,-4.2896,-4.2859,-4.2857,-4.2984,-4.2986,-4.2987,-4.2888,-4.2883,-4.2877,-4.2872,-4.2961,-4.297,-4.2978,-4.3146,0,0,-4.3005,-4.3009,0,0,0,0,0,0,0,0,-4.2738,-4.2753,-4.2864,-4.2862,-4.286,-4.2919,-4.2929,-4.3041,-4.289,-4.2876,-4.2875,-4.2869,-4.2954,-4.2963,-4.2992,-4.315,-4.3154,-4.3006,-4.3011,-4.3015,-4.3018,0,0,0,0,0,0,0,-4.2731,-4.2748,-4.2931,-4.2866,-4.2863,-4.2838,-4.2847,-4.2949,-4.2946,-4.2877,-4.287,-4.2882,-4.2952,-4.2984,-4.2994,-4.3155,-4.3006,-4.3014,-4.3019,-4.3023,-4.3457,-4.3463,0,0,0,0,0,0,-4.2728,-4.2743,-4.2929,-4.2934,-4.2784,-4.2848,-4.2857,-4.2906,-4.2945,-4.2945,-4.2887,-4.2877,-4.2972,-4.2983,-4.2996,-4.3197,-4.3015,-4.3023,-4.3029,-4.3451,-4.3459,-4.3465,0,0,0,0,0,0,-4.2723,-4.2746,-4.2925,-4.2837,-4.2858,-4.2858,-4.2914,-4.291,-4.2942,-4.2952,-4.2951,-4.292,-4.2968,-4.2984,-4.311,-4.3199,-4.3027,-4.3035,-4.3444,-4.3453,-4.3462,-4.3599,0,0,0,0,0,0,-4.2716,-4.2744,-4.2808,-4.2839,-4.2863,-4.3038,-4.2919,-4.2916,-4.2958,-4.2946,-4.2983,-4.2983,-4.2964,-4.3097,-4.3119,-4.3208,-4.3042,-4.3436,-4.3448,-4.3459,-4.3587,-4.3612,-4.3633,0,0,0,0,0,-4.2707,-4.2843,-4.2812,-4.2835,-4.2943,-4.3043,-4.3057,-4.3032,-4.2965,-4.303,-4.3036,-4.2982,-4.3185,-4.3111,-4.3134,-4.3227,-4.343,-4.3444,-4.3458,-4.3576,-4.3607,-4.3633,0,0,0,0,0,0,-4.2822,-4.2846,-4.2812,-4.2962,-4.3001,-4.3026,-4.3106,-4.3066,-4.3125,-4.3111,-4.3078,-4.3087,-4.3222,-4.3236,-4.3154,-4.3393,-4.3297,-4.3316,-4.3378,-4.3408,-4.3431,-4.3425,-4.305,0,0,0,0,0,-4.2864,-4.2944,-4.2961,-4.3091,-4.3113,-4.3107,-4.3149,-4.3127,-4.3167,-4.3183,-4.3198,-4.3238,-4.3311,-4.336,-4.3427,-4.3588,-4.3595,-4.3663,-4.3686,-4.3706,-4.3723,-4.3811,-4.3842,-4.3511,-4.3511,-4.3511,0,0,-4.2953,-4.2976,-4.3029,-4.3115,-4.3143,-4.3226,-4.3121,-4.3213,-4.3275,-4.3196,-4.3317,-4.333,-4.3373,-4.3517,-4.3582,-4.3534,-4.3816,-4.3724,-4.3739,-4.3746,-4.3829,-4.386,-4.3888,-4.3521,-4.3519,-4.3518,0,0,-4.3158,-4.3183,-4.3296,-4.3326,-4.337,-4.3365,-4.3392,-4.3424,-4.343,-4.355,-4.3493,-4.3566,-4.3692,-4.3725,-4.3758,-4.3977,-4.3931,-4.4,-4.4123,-4.4209,-4.4235,-4.4258,-4.4338,-4.4367,-4.4017,-4.4017,-4.4018,0,-4.3263,-4.3387,-4.3358,-4.3456,-4.3496,-4.3428,-4.3542,-4.3573,-4.3637,-4.3666,-4.3611,-4.3769,-4.3793,-4.3945,-4.3999,-4.4027,-4.4058,-4.3996,-4.4234,-4.4256,-4.4277,-4.4353,-4.4383,-4.4026,-4.4025,-4.4024,-4.4023,0,-4.3515,-4.3602,-4.3687,-4.3752,-4.3801,-4.3906,-4.3893,-4.3946,-4.392,-4.3921,-4.4045,-4.4071,-4.4144,-4.4178,-4.4153,-4.4327,-4.4297,-4.4239,-4.4142,-4.4318,-4.4388,-4.4417,-4.4038,-4.4035,-4.4032,-4.403,0,0,-4.3795,-4.3843,-4.3875,-4.3904,-4.3948,-4.4015,-4.4117,-4.4188,-4.4235,-4.4281,-4.4367,-4.4475,-4.4422,-4.446,-4.4438,-4.4513,-4.4687,-4.4446,-4.4446,-4.4491,-4.4883,-4.4928,-4.4962,-4.4656,-4.4661,-4.4665,-4.488,0,-4.4003,-4.4181,-4.4158,-4.4328,-4.4409,-4.4347,-4.4435,-4.4472,-4.4476,-4.4545,-4.4548,-4.4627,-4.455,-4.4572,-4.4644,-4.4651,-4.4766,-4.4635,-4.4736,-4.474,-4.4729,-4.4998,-4.5046,-4.5247,-4.4907,-4.4912,-4.4915,0,-4.4269,-4.4326,-4.4505,-4.4538,-4.4571,-4.4651,-4.4715,-4.4782,-4.4822,-4.4819,-4.4863,-4.4828,-4.493,-4.4831,-4.4972,-4.4884,-4.4924,-4.4933,-4.4941,-4.495,-4.484,-4.5017,-4.5311,-4.5342,-4.4958,-4.4955,-4.4952,0,-4.4458,-4.4579,-4.4702,-4.4729,-4.477,-4.4828,-4.4848,-4.4882,-4.4927,-4.4983,-4.5012,-4.5079,-4.5116,-4.5169,-4.5153,-4.5081,-4.5299,-4.5197,-4.53,-4.5301,-4.535,-4.5348,-4.5656,-4.5373,-4.5373,-4.5372,-4.5371,0,-4.4693,-4.4805,-4.4788,-4.4864,-4.4988,-4.4961,-4.5085,-4.5096,-4.5128,-4.5206,-4.5155,-4.5228,-4.5202,-4.5274,-4.5262,-4.5382,-4.5398,-4.54,-4.5396,-4.5406,-4.5406,-4.5432,-4.5419,-4.538,-4.5378,-4.5377,-4.5375,0,-4.4926,-4.4918,-4.5049,-4.5077,-4.5087,-4.5178,-4.5202,-4.5273,-4.5273,-4.5372,-4.5393,-4.5393,-4.5475,-4.5464,-4.5555,-4.5547,-4.5698,-4.5675,-4.5685,-4.568,-4.5785,-4.5776,-4.6122,-4.6167,-4.5854,-4.5857,-4.5859,0,-4.5077,-4.5162,-4.52,-4.5249,-4.5273,-4.5352,-4.5397,-4.5373,-4.5423,-4.5476,-4.5542,-4.562,-4.5681,-4.5816,-4.5824,-4.5894,-4.5874,-4.5991,-4.5884,-4.5892,-4.5878,-4.5874,-4.5883,-4.6012,-4.6016,-4.6019,-4.6021,0,-4.5347,-4.534,-4.5408,-4.5476,-4.5532,-4.5584,-4.5631,-4.5673,-4.5654,-4.5712,-4.5796,-4.5844,-4.5938,-4.6017,-4.6083,-4.6102,-4.606,-4.6054,-4.6082,-4.6094,-4.6097,-4.6099,-4.5744,-4.6047,-4.6044,-4.6042,-4.6041,-4.604,-4.5545,-4.5619,-4.5658,-4.5735,-4.5768,-4.5813,-4.5883,-4.5891,-4.5961,-4.6037,-4.6018,-4.6114,-4.6152,-4.6237,-4.6264,-4.6338,-4.6296,-4.6336,-4.6346,-4.6357,-4.637,-4.6084,-4.635,-4.6349,-4.6348,-4.6348,-4.6347,0,-4.5814,-4.5836,-4.5908,-4.5976,-4.6038,-4.5992,-4.6041,-4.6096,-4.6181,-4.6221,-4.6283,-4.638,-4.6456,-4.647,-4.6543,-4.66,-4.6582,-4.662,-4.6616,-4.6622,-4.6403,-4.6373,-4.6633,-4.6633,-4.6633,-4.6633,-4.6633,-4.6633,-4.5962,-4.6084,-4.6082,-4.622,-4.6241,-4.6335,-4.6367,-4.6409,-4.6441,-4.6552,-4.6616,-4.6624,-4.6655,-4.6729,-4.6797,-4.6799,-4.6829,-4.6875,-4.687,-4.6666,-4.6637,-4.661,-4.6581,-4.6881,-4.6882,-4.7083,-4.7084,-4.7086]},{"header":{"parameterUnit":"m.s-1","parameterCategory":1,"la1":30.2991,"la2":30.254,"lo1":-89.0895,"lo2":-89.0444,"dy":0.0017,"dx":0.0017,"nx":28,"ny":28,"refTime":"2023-11-03T03:00:00:Z","depth":0,"parameterNumber":3,"parameterNumberName":"V-component_of_WINDS"},"data":[0,0,0,0,0,0,0,0,0,0,0,0,0,0,0,0,0,0,0,0,0,0,0,0,0,0,0,0,0,0,0,0,0,0,0,0,0,0,0,0,0,0,0,0,0,0,0,0,0,0,0,0,0,0,0,0,0,0,-2.193,-2.193,0,-2.1923,-2.1923,-2.1923,-2.1874,-2.1873,-2.1872,-2.1871,-2.1865,-2.1866,-2.1867,0,0,0,0,0,0,0,0,0,0,0,0,0,-2.1902,-2.1903,-2.193,-2.193,-2.193,-2.1923,-2.1923,-2.1923,-2.1875,-2.1873,-2.1872,-2.187,-2.1865,-2.1866,-2.1867,0,0,0,0,0,0,0,0,0,0,0,0,0,-2.1907,-2.1903,-2.193,-2.1905,-2.1903,-2.1923,-2.1923,-2.1923,-2.1875,-2.1873,-2.1871,-2.187,-2.1865,-2.1866,-2.1867,-2.1912,0,0,-2.1872,-2.1872,0,0,0,0,0,0,0,0,-2.1906,-2.1908,-2.1909,-2.1907,-2.1904,-2.1898,-2.1911,-2.1919,-2.1875,-2.1886,-2.1871,-2.1869,-2.1878,-2.1878,-2.188,-2.1911,-2.1911,-2.1872,-2.1873,-2.1873,-2.1874,0,0,0,0,0,0,0,-2.1906,-2.1908,-2.1927,-2.1909,-2.1906,-2.1894,-2.1893,-2.1912,-2.1892,-2.1885,-2.1881,-2.1881,-2.1876,-2.1879,-2.188,-2.1911,-2.1872,-2.1873,-2.1874,-2.1874,-2.1976,-2.1977,0,0,0,0,0,0,-2.1909,-2.1908,-2.1928,-2.1927,-2.1901,-2.1896,-2.1895,-2.1902,-2.1891,-2.1888,-2.1882,-2.1879,-2.1878,-2.1878,-2.188,-2.193,-2.1873,-2.1875,-2.1875,-2.1974,-2.1976,-2.1978,0,0,0,0,0,0,-2.1909,-2.1911,-2.1928,-2.1916,-2.1918,-2.1898,-2.1907,-2.1903,-2.1906,-2.189,-2.1886,-2.1889,-2.1876,-2.1878,-2.1903,-2.1929,-2.1875,-2.1877,-2.1972,-2.1975,-2.1977,-2.2031,0,0,0,0,0,0,-2.1908,-2.1912,-2.1929,-2.1917,-2.1918,-2.1952,-2.1908,-2.1904,-2.1908,-2.1903,-2.1895,-2.1892,-2.1875,-2.1902,-2.1905,-2.193,-2.1878,-2.1969,-2.1973,-2.1976,-2.2027,-2.2035,-2.2042,0,0,0,0,0,-2.1907,-2.1945,-2.193,-2.1932,-2.1939,-2.1954,-2.1955,-2.1934,-2.191,-2.1927,-2.1916,-2.1892,-2.1925,-2.1905,-2.1908,-2.1934,-2.1968,-2.1972,-2.1976,-2.2023,-2.2033,-2.2042,0,0,0,0,0,0,-2.1961,-2.1943,-2.1926,-2.1961,-2.1959,-2.1946,-2.1966,-2.1945,-2.1951,-2.1946,-2.192,-2.1918,-2.1948,-2.1943,-2.1921,-2.1975,-2.1942,-2.1947,-2.1977,-2.1987,-2.1994,-2.1995,-2.1879,0,0,0,0,0,-2.1977,-2.199,-2.1974,-2.2006,-2.2006,-2.1986,-2.1992,-2.1975,-2.1973,-2.1972,-2.1963,-2.1962,-2.1971,-2.1979,-2.1987,-2.2025,-2.2022,-2.2044,-2.2052,-2.2059,-2.2063,-2.2082,-2.2091,-2.1992,-2.1992,-2.1992,0,0,-2.201,-2.2002,-2.2012,-2.2017,-2.2013,-2.2027,-2.1986,-2.2003,-2.2013,-2.1975,-2.1998,-2.1992,-2.1988,-2.202,-2.2034,-2.2017,-2.209,-2.2064,-2.2069,-2.207,-2.2087,-2.2096,-2.2105,-2.1994,-2.1994,-2.1993,0,0,-2.2077,-2.2073,-2.2098,-2.2095,-2.209,-2.2076,-2.2082,-2.2071,-2.2065,-2.2088,-2.2059,-2.207,-2.2088,-2.2086,-2.2087,-2.2151,-2.2129,-2.2154,-2.2195,-2.2213,-2.2221,-2.2228,-2.225,-2.2258,-2.2159,-2.2159,-2.2159,0,-2.212,-2.2139,-2.2114,-2.2133,-2.2135,-2.2099,-2.2124,-2.2123,-2.2121,-2.2123,-2.2104,-2.2124,-2.2119,-2.215,-2.2165,-2.2167,-2.2173,-2.2156,-2.2222,-2.2228,-2.2234,-2.2255,-2.2263,-2.2162,-2.2162,-2.2162,-2.2161,0,-2.2191,-2.2205,-2.2226,-2.2223,-2.2228,-2.225,-2.2228,-2.2235,-2.2218,-2.2206,-2.2228,-2.2221,-2.2226,-2.2232,-2.2216,-2.2259,-2.2249,-2.2226,-2.2193,-2.2247,-2.2266,-2.2274,-2.2167,-2.2166,-2.2165,-2.2164,0,0,-2.2294,-2.2275,-2.2284,-2.2281,-2.2271,-2.2282,-2.2301,-2.2305,-2.2311,-2.2311,-2.2326,-2.234,-2.2318,-2.232,-2.2303,-2.2319,-2.2368,-2.2294,-2.2293,-2.2307,-2.2414,-2.2431,-2.2441,-2.2353,-2.2354,-2.2355,-2.2414,0,-2.2358,-2.239,-2.2367,-2.2403,-2.2414,-2.2379,-2.2396,-2.2391,-2.238,-2.2388,-2.2376,-2.2386,-2.2357,-2.2357,-2.2371,-2.2359,-2.2389,-2.2355,-2.2367,-2.2367,-2.2369,-2.2451,-2.247,-2.2526,-2.2422,-2.2423,-2.2424,0,-2.2438,-2.2439,-2.2476,-2.2461,-2.2465,-2.2481,-2.2481,-2.2489,-2.2483,-2.2473,-2.2474,-2.2452,-2.2469,-2.2436,-2.2459,-2.2436,-2.2439,-2.2433,-2.2435,-2.2436,-2.2399,-2.2454,-2.2543,-2.2552,-2.2435,-2.2434,-2.2433,0,-2.2509,-2.252,-2.2542,-2.2541,-2.2525,-2.2536,-2.253,-2.2522,-2.2525,-2.2525,-2.2527,-2.253,-2.2532,-2.2534,-2.2513,-2.2491,-2.2538,-2.2504,-2.2531,-2.2531,-2.2543,-2.2543,-2.2634,-2.2545,-2.2545,-2.2545,-2.2545,0,-2.2583,-2.2607,-2.2573,-2.2588,-2.2612,-2.2585,-2.261,-2.26,-2.2593,-2.2604,-2.2573,-2.2585,-2.2556,-2.2564,-2.2547,-2.2568,-2.257,-2.2562,-2.2558,-2.2565,-2.2566,-2.2567,-2.2563,-2.2547,-2.2547,-2.2546,-2.2546,0,-2.2668,-2.2646,-2.2668,-2.265,-2.2646,-2.2665,-2.2649,-2.2661,-2.2647,-2.2661,-2.2663,-2.2641,-2.2648,-2.2627,-2.2632,-2.262,-2.265,-2.264,-2.2653,-2.2649,-2.2677,-2.2675,-2.2773,-2.2784,-2.2688,-2.2689,-2.269,0,-2.2717,-2.2734,-2.2717,-2.2721,-2.2716,-2.2725,-2.2727,-2.2699,-2.2703,-2.2695,-2.2708,-2.2713,-2.2715,-2.2729,-2.2713,-2.2716,-2.2705,-2.2739,-2.2705,-2.2711,-2.2705,-2.2704,-2.2705,-2.2746,-2.2747,-2.2748,-2.2749,0,-2.2806,-2.2794,-2.2798,-2.2798,-2.2801,-2.2799,-2.2796,-2.2802,-2.2772,-2.2778,-2.2784,-2.2786,-2.2789,-2.2794,-2.2793,-2.2786,-2.2763,-2.2759,-2.2766,-2.2774,-2.278,-2.2777,-2.2671,-2.2758,-2.2757,-2.2756,-2.2756,-2.2755,-2.2874,-2.2887,-2.2876,-2.2881,-2.2875,-2.2872,-2.2881,-2.2867,-2.2871,-2.2871,-2.2855,-2.2864,-2.2855,-2.2851,-2.2847,-2.2854,-2.2838,-2.2848,-2.285,-2.2853,-2.2857,-2.2779,-2.2854,-2.2853,-2.2853,-2.2853,-2.2853,0,-2.2961,-2.2952,-2.2956,-2.2951,-2.2955,-2.293,-2.2925,-2.293,-2.2938,-2.2931,-2.2933,-2.294,-2.2943,-2.2927,-2.2928,-2.2937,-2.2926,-2.2938,-2.2937,-2.2936,-2.2871,-2.2866,-2.2947,-2.2947,-2.2947,-2.2947,-2.2947,-2.2947,-2.3007,-2.3026,-2.3012,-2.3028,-2.3018,-2.3026,-2.3025,-2.3022,-2.3016,-2.3024,-2.3026,-2.3015,-2.3004,-2.3004,-2.3006,-2.3001,-2.3002,-2.3018,-2.301,-2.295,-2.2941,-2.2932,-2.2926,-2.3019,-2.3019,-2.3074,-2.3074,-2.3074]}]]